Starlink 30148

operational
NORAD ID: 57617 Int'l Des: 2023-119 Owner: SPXS Country: US Constellation: starlink
LEOCIRCULAR

Über Starlink 30148

Beschreibung wird geladen...

Live-Position

3D-Globus wird geladen...

Nächste Überflüge

Höhenverlauf

Altitude vs Time

uPlot chart will show altitude changes over time

Zweizeiliger Elementsatz

1 57617U 23119R 25305.67656524 .00000760 00000-0 71340-4 0 9990
2 57617 43.0050 57.6940 0001464 276.0035 84.0641 15.02535796123821
Epoch: 1. Nov. 2025 • Age: 34 hours

Aktueller Status

Höhe 559.3 km
Geschwindigkeit 7.58 km/s
Subsatellitenpunkt -1.31°S, 150.49°E
Startdatum 11. Aug. 2023
Alter 2.2 years
Typ internet

Technische Details

Klassifizierung Payload
Masse 730.00 kg
Trockenmasse 700.00 kg
Gesamtmasse 730.00 kg
Länge 0.30 m
Durchmesser 4.10 m
Spannweite 29.00 m
Form Box + pan
Hersteller SPXS
Bus-Typ Starlink V2M
Phasenstatus In Orbit
Besitzer/Staat SPXS/US

Große Konstellationen

Loading constellations...